This is the latest recevied weather packets stored in our database for station/object KC1TEM-13. If no packets are shown the sender has not sent any weather packets the latest 1 day(s).
| Time | Temp. | Humidity | Pressure | Rain* | Wind** | Luminosity | Snow |
|---|---|---|---|---|---|---|---|
| 1777978045 | 13.33° C | 66% | 1009.5 hPa | 0 mm | 0.45 m/s, 125° | 41 W/m² | - |
| 1777977743 | 13.33° C | 66% | 1009.5 hPa | 0 mm | 0.89 m/s, 232° | 37 W/m² | - |
| 1777977439 | 13.33° C | 66% | 1009.6 hPa | 0 mm | 0.89 m/s, 201° | 35 W/m² | - |
| 1777977137 | 12.78° C | 66% | 1009.6 hPa | 0 mm | 0.45 m/s, 243° | 39 W/m² | - |
| 1777976834 | 12.78° C | 66% | 1009.5 hPa | 0 mm | 0 m/s | 33 W/m² | - |
| 1777976532 | 12.78° C | 66% | 1009.6 hPa | 0 mm | 0.89 m/s, 180° | 25 W/m² | - |
| 1777976231 | 12.78° C | 66% | 1009.6 hPa | 0 mm | 0.89 m/s, 238° | 21 W/m² | - |
| 1777975926 | 12.78° C | 66% | 1009.5 hPa | 0 mm | 0 m/s | 17 W/m² | - |
| 1777975623 | 12.78° C | 66% | 1009.5 hPa | 0 mm | 0.89 m/s, 208° | 13 W/m² | - |
| 1777975320 | 12.78° C | 65% | 1009.4 hPa | 0 mm | 0 m/s | 12 W/m² | - |
| 1777975015 | 12.78° C | 65% | 1009.4 hPa | 0 mm | 0.89 m/s, 227° | 9 W/m² | - |
| 1777974713 | 12.78° C | 66% | 1009.5 hPa | 0 mm | 0.45 m/s, 195° | 7 W/m² | - |
| 1777974409 | 12.78° C | 65% | 1009.5 hPa | 0 mm | 2.68 m/s, 203° | 5 W/m² | - |
| 1777974105 | 12.78° C | 66% | 1009.5 hPa | 0 mm | 0.45 m/s, 164° | 4 W/m² | - |
| 1777973802 | 12.22° C | 66% | 1009.5 hPa | 0 mm | 0 m/s | 3 W/m² | - |
| 1777973499 | 12.22° C | 66% | 1009.5 hPa | 0 mm | 0 m/s | 2 W/m² | - |
| 1777973196 | 12.22° C | 66% | 1009.6 hPa | 0 mm | 0 m/s | 1 W/m² | - |
| 1777972895 | 12.22° C | 66% | 1009.6 hPa | 0 mm | 1.79 m/s, 185° | 0 W/m² | - |
| 1777972591 | 12.22° C | 66% | 1009.5 hPa | 0 mm | 0.89 m/s, 184° | 0 W/m² | - |
| 1777972289 | 12.22° C | 66% | 1009.4 hPa | 0 mm | 0.45 m/s, 190° | 0 W/m² | - |
| 1777971987 | 12.22° C | 66% | 1009.4 hPa | 0 mm | 1.34 m/s, 202° | 0 W/m² | - |
| 1777971685 | 12.22° C | 65% | 1009.6 hPa | 0 mm | 0.45 m/s, 210° | 0 W/m² | - |
| 1777971382 | 12.22° C | 65% | 1009.6 hPa | 0 mm | 0.89 m/s, 173° | 0 W/m² | - |
| 1777971080 | 12.78° C | 65% | 1009.6 hPa | 0 mm | 0.89 m/s, 185° | 0 W/m² | - |
| 1777970778 | 12.78° C | 64% | 1009.7 hPa | 0 mm | 1.79 m/s, 196° | 0 W/m² | - |
* Rain latest hour (hover to see other rain measurements)
** Current wind speed in m/s (hover to see current wind gust speed)